• In Lithuania
  • List of Countries
  • For 7 days
  • Water Temperature
  • Satellite Maps
  • Weather Map
  • Weather Widgets
  • user-avatar
    Login

    Hourly Weather Neuquén

    Today, 12 December, Tuesday

    Time Temperature Precipitation Wind Pressure Humidity
    00:00 +29°C° 0 mm 7 mps 727 mmHg 32%
    01:00 +28°C° 0 mm 7 mps 727 mmHg 37%
    02:00 +27°C° 0.2 mm 8 mps 728 mmHg 40%
    03:00 +26°C° 0.2 mm 9 mps 728 mmHg 43%
    04:00 +26°C° 0.2 mm 10 mps 728 mmHg 46%
    05:00 +27°C° 0 mm 10 mps 728 mmHg 44%
    06:00 +27°C° 0 mm 11 mps 729 mmHg 41%
    07:00 +28°C° 0 mm 11 mps 729 mmHg 38%
    08:00 +29°C° 0 mm 11 mps 730 mmHg 34%
    09:00 +32°C° 0 mm 10 mps 730 mmHg 30%
    10:00 +33°C° 0 mm 9 mps 730 mmHg 26%
    11:00 +34°C° 0 mm 9 mps 730 mmHg 24%
    12:00 +35°C° 0 mm 8 mps 729 mmHg 21%
    13:00 +37°C° 0 mm 8 mps 729 mmHg 19%
    14:00 +37°C° 0 mm 8 mps 729 mmHg 19%
    15:00 +37°C° 0 mm 8 mps 729 mmHg 19%
    16:00 +37°C° 0 mm 8 mps 729 mmHg 18%
    17:00 +34°C° 0.2 mm 7 mps 729 mmHg 20%
    18:00 +33°C° 0.2 mm 6 mps 729 mmHg 22%
    19:00 +32°C° 0.2 mm 6 mps 730 mmHg 24%
    20:00 +30°C° 0.4 mm 6 mps 730 mmHg 28%
    21:00 +28°C° 0.4 mm 7 mps 731 mmHg 31%
    22:00 +27°C° 0.4 mm 8 mps 732 mmHg 34%
    23:00 +26°C° 0 mm 9 mps 732 mmHg 35%

    Tomorrow, 13 December, Wednesday

    Time Temperature Precipitation Wind Pressure Humidity
    00:00 +24°C° 0 mm 9 mps 732 mmHg 37%
    01:00 +24°C° 0 mm 10 mps 732 mmHg 38%
    02:00 +23°C° 0 mm 9 mps 732 mmHg 39%
    03:00 +23°C° 0 mm 8 mps 732 mmHg 41%
    04:00 +22°C° 0 mm 7 mps 732 mmHg 42%
    05:00 +22°C° 0.1 mm 7 mps 732 mmHg 41%
    06:00 +23°C° 0.1 mm 8 mps 733 mmHg 40%
    07:00 +23°C° 0.1 mm 8 mps 733 mmHg 39%
    08:00 +26°C° 0 mm 8 mps 733 mmHg 34%
    09:00 +28°C° 0 mm 9 mps 732 mmHg 28%
    10:00 +29°C° 0 mm 9 mps 732 mmHg 23%
    11:00 +31°C° 0 mm 9 mps 732 mmHg 22%
    12:00 +32°C° 0 mm 9 mps 732 mmHg 20%
    13:00 +33°C° 0 mm 9 mps 731 mmHg 18%
    14:00 +33°C° 0 mm 10 mps 731 mmHg 19%
    15:00 +32°C° 0 mm 10 mps 731 mmHg 20%
    16:00 +32°C° 0 mm 11 mps 730 mmHg 21%
    17:00 +31°C° 0 mm 11 mps 731 mmHg 23%
    18:00 +29°C° 0 mm 12 mps 731 mmHg 25%
    19:00 +27°C° 0 mm 12 mps 732 mmHg 27%
    20:00 +26°C° 0 mm 12 mps 732 mmHg 29%
    21:00 +26°C° 0 mm 12 mps 733 mmHg 31%
    22:00 +24°C° 0 mm 11 mps 734 mmHg 33%
    23:00 +23°C° 0 mm 11 mps 734 mmHg 35%

    Day after tomorrow, 14 December, Thursday

    Time Temperature Precipitation Wind Pressure Humidity
    00:00 +22°C° 0 mm 11 mps 734 mmHg 38%
    01:00 +21°C° 0 mm 10 mps 734 mmHg 40%
    02:00 +21°C° 0 mm 9 mps 734 mmHg 42%
    03:00 +21°C° 0 mm 8 mps 734 mmHg 43%
    04:00 +20°C° 0 mm 7 mps 734 mmHg 44%
    05:00 +22°C° 0 mm 8 mps 734 mmHg 41%
    06:00 +23°C° 0 mm 9 mps 734 mmHg 38%
    07:00 +24°C° 0 mm 10 mps 735 mmHg 34%
    08:00 +27°C° 0 mm 10 mps 734 mmHg 31%
    09:00 +28°C° 0 mm 10 mps 734 mmHg 28%
    10:00 +31°C° 0 mm 10 mps 734 mmHg 25%
    11:00 +31°C° 0 mm 11 mps 734 mmHg 24%
    12:00 +32°C° 0 mm 11 mps 733 mmHg 23%
    13:00 +33°C° 0 mm 11 mps 733 mmHg 22%
    14:00 +33°C° 0 mm 11 mps 732 mmHg 22%
    15:00 +32°C° 0 mm 12 mps 732 mmHg 23%
    16:00 +32°C° 0 mm 12 mps 732 mmHg 23%
    17:00 +31°C° 0 mm 12 mps 732 mmHg 26%
    18:00 +28°C° 0 mm 11 mps 732 mmHg 29%
    19:00 +27°C° 0 mm 11 mps 732 mmHg 32%
    20:00 +26°C° 0 mm 11 mps 733 mmHg 34%
    21:00 +24°C° 0 mm 11 mps 733 mmHg 36%
    22:00 +23°C° 0 mm 10 mps 734 mmHg 38%
    23:00 +23°C° 0 mm 9 mps 733 mmHg 39%

    15 December, Friday

    Time Temperature Precipitation Wind Pressure Humidity
    00:00 +23°C° 0 mm 8 mps 733 mmHg 40%
    01:00 +22°C° 0 mm 7 mps 733 mmHg 41%
    02:00 +22°C° 0 mm 6 mps 733 mmHg 42%
    03:00 +21°C° 0 mm 6 mps 732 mmHg 43%
    04:00 +21°C° 0 mm 5 mps 732 mmHg 45%
    05:00 +22°C° 0 mm 6 mps 732 mmHg 41%
    06:00 +23°C° 0 mm 6 mps 732 mmHg 38%
    07:00 +24°C° 0 mm 6 mps 732 mmHg 34%
    08:00 +27°C° 0 mm 6 mps 731 mmHg 30%
    09:00 +28°C° 0 mm 6 mps 731 mmHg 25%
    10:00 +30°C° 0 mm 5 mps 730 mmHg 21%
    11:00 +33°C° 0 mm 6 mps 729 mmHg 19%
    12:00 +34°C° 0 mm 6 mps 728 mmHg 17%
    13:00 +36°C° 0 mm 6 mps 727 mmHg 14%
    14:00 +38°C° 0 mm 7 mps 727 mmHg 13%
    15:00 +39°C° 0 mm 7 mps 726 mmHg 12%
    16:00 +40°C° 0 mm 8 mps 725 mmHg 10%
    17:00 +38°C° 0 mm 9 mps 725 mmHg 11%
    18:00 +37°C° 0 mm 10 mps 725 mmHg 12%
    19:00 +34°C° 0 mm 11 mps 725 mmHg 13%
    20:00 +32°C° 0 mm 11 mps 726 mmHg 15%
    21:00 +29°C° 0 mm 11 mps 726 mmHg 18%
    22:00 +27°C° 0 mm 10 mps 727 mmHg 21%
    23:00 +26°C° 0 mm 10 mps 726 mmHg 23%

    16 December, Saturday

    Time Temperature Precipitation Wind Pressure Humidity
    00:00 +24°C° 0 mm 9 mps 726 mmHg 25%
    01:00 +23°C° 0 mm 8 mps 726 mmHg 27%
    02:00 +22°C° 0 mm 8 mps 725 mmHg 28%
    03:00 +22°C° 0 mm 8 mps 725 mmHg 29%
    04:00 +21°C° 0 mm 8 mps 725 mmHg 31%
    05:00 +22°C° 0 mm 10 mps 725 mmHg 31%
    06:00 +23°C° 0 mm 12 mps 725 mmHg 30%
    07:00 +24°C° 0 mm 14 mps 725 mmHg 30%
    08:00 +27°C° 0 mm 15 mps 724 mmHg 27%
    09:00 +29°C° 0 mm 16 mps 724 mmHg 23%
    10:00 +32°C° 0 mm 17 mps 723 mmHg 20%
    11:00 +32°C° 0 mm 19 mps 724 mmHg 20%
    12:00 +31°C° 0 mm 20 mps 724 mmHg 21%
    13:00 +31°C° 0 mm 21 mps 725 mmHg 21%
    14:00 +28°C° 0 mm 20 mps 726 mmHg 19%
    15:00 +27°C° 0 mm 19 mps 727 mmHg 17%
    16:00 +24°C° 0 mm 18 mps 728 mmHg 15%
    17:00 +23°C° 0 mm 16 mps 729 mmHg 17%
    18:00 +20°C° 0 mm 15 mps 730 mmHg 18%
    19:00 +19°C° 0 mm 13 mps 731 mmHg 19%
    20:00 +18°C° 0 mm 12 mps 732 mmHg 20%
    21:00 +18°C° 0 mm 11 mps 733 mmHg 21%
    22:00 +17°C° 0 mm 10 mps 734 mmHg 21%
    23:00 +16°C° 0 mm 9 mps 735 mmHg 22%

    17 December, Sunday

    Time Temperature Precipitation Wind Pressure Humidity
    00:00 +15°C° 0 mm 7 mps 735 mmHg 23%
    01:00 +15°C° 0 mm 6 mps 736 mmHg 23%
    02:00 +14°C° 0 mm 5 mps 736 mmHg 24%
    03:00 +14°C° 0 mm 4 mps 736 mmHg 25%
    04:00 +13°C° 0 mm 3 mps 737 mmHg 27%
    05:00 +14°C° 0 mm 3 mps 738 mmHg 25%
    06:00 +15°C° 0 mm 4 mps 738 mmHg 24%
    07:00 +17°C° 0 mm 4 mps 739 mmHg 22%
    08:00 +19°C° 0 mm 4 mps 739 mmHg 20%
    09:00 +20°C° 0 mm 5 mps 739 mmHg 18%
    10:00 +21°C° 0 mm 5 mps 738 mmHg 16%
    11:00 +22°C° 0 mm 5 mps 738 mmHg 15%
    12:00 +24°C° 0 mm 6 mps 737 mmHg 13%
    13:00 +26°C° 0 mm 6 mps 736 mmHg 12%
    14:00 +27°C° 0 mm 6 mps 735 mmHg 11%
    15:00 +27°C° 0 mm 7 mps 735 mmHg 11%
    16:00 +28°C° 0 mm 7 mps 734 mmHg 10%
    17:00 +28°C° 0 mm 7 mps 734 mmHg 11%
    18:00 +27°C° 0 mm 6 mps 734 mmHg 11%
    19:00 +26°C° 0 mm 6 mps 734 mmHg 12%
    20:00 +26°C° 0 mm 6 mps 733 mmHg 13%
    21:00 +24°C° 0 mm 6 mps 733 mmHg 14%
    22:00 +24°C° 0 mm 6 mps 733 mmHg 16%
    23:00 +23°C° 0 mm 7 mps 733 mmHg 17%
    Show more